Location: Caltech
(34.1382°N, 118.1253°W)
Time: 15:38:09
(UTC-07:00)

Cosmos 1975 - Visible Passes

Search period start: 23 May 2017 00:00
Search period end: 02 June 2017 00:00
Orbit: 543 x 564 km, 82.5° (Epoch: 22 May)

Date Brightness Start Highest point End Pass type
(mag) Time Alt. Az. Time Alt. Az. Time Alt. Az.
23 May 3.3 20:31:17 10° N 20:35:09 42° E 20:39:01 10° SSE visible
23 May 5.9 22:10:25 10° WNW 22:11:11 10° W 22:11:56 10° W visible
24 May 3.1 20:28:10 10° N 20:32:07 49° E 20:36:04 10° SSE visible
25 May 3.0 20:25:04 10° N 20:29:05 57° E 20:33:06 10° SSE visible
26 May 2.9 20:21:59 10° N 20:26:03 66° E 20:30:06 10° SSE visible
27 May 2.8 20:18:55 10° N 20:23:00 77° E 20:27:05 10° S visible
